Time,TemperatureF,DewpointF,PressureIn,WindDirection,WindDirectionDegrees,WindSpeedMPH,WindSpeedGustMPH,Humidity,HourlyPrecipIn,Conditions,Clouds,dailyrainin,SoftwareType,DateUTC
2013-04-14 00:00:00,63.0,25.6,29.80,SE,135,1.2,4.0,24,0.00,SCT,,0.00,WeatherDisplay:10.37,2013-04-14 05:00:00,
2013-04-14 00:05:00,62.6,25.3,29.80,SE,135,1.2,4.0,24,0.00,SCT,,0.00,WeatherDisplay:10.37,2013-04-14 05:05:00,
2013-04-14 00:10:00,62.8,25.4,29.80,SE,135,1.2,4.0,24,0.00,SCT,,0.00,WeatherDisplay:10.37,2013-04-14 05:10:00,
2013-04-14 00:15:00,63.5,27.0,29.80,SE,135,1.2,4.0,25,0.00,SCT,,0.00,WeatherDisplay:10.37,2013-04-14 05:15:00,
2013-04-14 00:20:00,63.7,27.2,29.80,SE,135,1.2,4.0,25,0.00,SCT,,0.00,WeatherDisplay:10.37,2013-04-14 05:20:00,
2013-04-14 00:25:00,63.9,27.3,29.80,SSE,158,3.5,3.5,25,0.00,SCT,,0.00,WeatherDisplay:10.37,2013-04-14 05:25:00,
2013-04-14 00:30:00,64.4,26.8,29.80,SSE,158,3.8,3.8,24,0.00,SCT,,0.00,WeatherDisplay:10.37,2013-04-14 05:30:00,
2013-04-14 00:35:00,64.8,27.1,29.80,SE,135,4.6,4.6,24,0.00,SCT,,0.00,WeatherDisplay:10.37,2013-04-14 05:35:00,
2013-04-14 00:40:00,65.1,27.4,29.80,SSE,158,4.9,6.9,24,0.00,SCT,,0.00,WeatherDisplay:10.37,2013-04-14 05:40:00,
2013-04-14 00:45:00,65.7,26.8,29.80,SSE,158,4.9,4.9,23,0.00,SCT,,0.00,WeatherDisplay:10.37,2013-04-14 05:45:00,
2013-04-14 00:50:00,66.0,27.1,29.80,ESE,112,8.1,8.1,23,0.00,SCT,,0.00,WeatherDisplay:10.37,2013-04-14 05:50:00,
2013-04-14 00:55:00,66.2,27.3,29.80,SE,135,4.6,4.6,23,0.00,SCT,,0.00,WeatherDisplay:10.37,2013-04-14 05:55:00,
2013-04-14 01:00:00,66.4,26.3,29.80,SE,135,3.5,3.6,22,0.00,-RA,,0.00,WeatherDisplay:10.37,2013-04-14 06:00:00,
2013-04-14 01:05:00,66.4,26.3,29.80,South,180,2.3,2.3,22,0.00,-RA,,0.00,WeatherDisplay:10.37,2013-04-14 06:05:00,
2013-04-14 01:10:00,66.2,26.2,29.80,ESE,112,0.0,0.0,22,0.00,-RA,,0.00,WeatherDisplay:10.37,2013-04-14 06:10:00,
2013-04-14 01:15:00,66.4,26.3,29.77,SSE,158,4.6,4.6,22,0.00,-RA,,0.00,WeatherDisplay:10.37,2013-04-14 06:15:00,
2013-04-14 01:20:00,66.4,26.3,29.77,ESE,112,4.6,4.6,22,0.00,-RA,,0.00,WeatherDisplay:10.37,2013-04-14 06:20:00,
2013-04-14 01:25:00,66.4,26.3,29.77,SSE,158,3.5,3.5,22,0.00,-RA,,0.00,WeatherDisplay:10.37,2013-04-14 06:25:00,
2013-04-14 01:30:00,66.2,26.2,29.80,SE,135,5.8,5.8,22,0.00,-RA,,0.00,WeatherDisplay:10.37,2013-04-14 06:30:00,
2013-04-14 01:35:00,66.2,23.9,29.80,SE,135,6.9,6.9,20,0.00,-RA,,0.00,WeatherDisplay:10.37,2013-04-14 06:35:00,
2013-04-14 01:40:00,66.0,27.1,29.80,SE,135,5.8,5.8,23,0.00,-RA,,0.00,WeatherDisplay:10.37,2013-04-14 06:40:00,
2013-04-14 01:45:00,65.8,27.0,29.80,SSE,158,3.5,3.5,23,0.00,-RA,,0.00,WeatherDisplay:10.37,2013-04-14 06:45:00,
2013-04-14 01:50:00,65.8,27.0,29.80,SSE,158,4.6,4.6,23,0.00,BKN,,0.00,WeatherDisplay:10.37,2013-04-14 06:50:00,
2013-04-14 01:55:00,65.7,26.8,29.80,SE,135,6.2,6.2,23,0.00,BKN,,0.00,WeatherDisplay:10.37,2013-04-14 06:55:00,
2013-04-14 02:00:00,65.5,26.7,29.80,SE,135,12.1,12.1,23,0.00,OVC,,0.00,WeatherDisplay:10.37,2013-04-14 07:00:00,
2013-04-14 02:06:00,65.5,26.7,29.80,SE,135,10.4,10.4,23,0.00,OVC,,0.00,WeatherDisplay:10.37,2013-04-14 07:06:00,
2013-04-14 02:11:00,65.5,23.3,29.80,SE,135,9.2,9.2,20,0.00,-RA,,0.00,WeatherDisplay:10.37,2013-04-14 07:11:00,
2013-04-14 02:16:00,64.8,22.7,29.77,SW,225,3.5,4.7,20,0.00,-RA,,0.00,WeatherDisplay:10.37,2013-04-14 07:16:00,
2013-04-14 02:21:00,64.2,25.6,29.77,SE,135,8.1,8.1,23,0.00,-RA,,0.00,WeatherDisplay:10.37,2013-04-14 07:21:00,
2013-04-14 02:26:00,63.9,26.3,29.77,ESE,112,3.5,3.5,24,0.00,-RA,,0.00,WeatherDisplay:10.37,2013-04-14 07:26:00,
2013-04-14 02:31:00,63.9,26.3,29.74,South,180,2.3,2.3,24,0.00,-RA,,0.00,WeatherDisplay:10.37,2013-04-14 07:31:00,
2013-04-14 02:36:00,63.7,26.2,29.74,SSE,158,5.8,5.8,24,0.00,-RA,,0.00,WeatherDisplay:10.37,2013-04-14 07:36:00,
2013-04-14 02:41:00,63.5,26.0,29.74,SSE,158,8.1,8.1,24,0.00,-RA,,0.00,WeatherDisplay:10.37,2013-04-14 07:41:00,
2013-04-14 02:46:00,63.5,26.0,29.77,SSE,158,9.2,9.2,24,0.00,-RA,,0.00,WeatherDisplay:10.37,2013-04-14 07:46:00,
2013-04-14 02:51:00,63.5,26.0,29.77,SE,135,10.4,10.4,24,0.00,OVC,,0.00,WeatherDisplay:10.37,2013-04-14 07:51:00,
2013-04-14 02:56:00,63.7,26.2,29.77,SE,135,15.0,15.0,24,0.00,OVC,,0.00,WeatherDisplay:10.37,2013-04-14 07:56:00,
2013-04-14 03:01:00,63.5,26.0,29.74,SE,135,9.2,9.2,24,0.00,OVC,,0.00,WeatherDisplay:10.37,2013-04-14 08:01:00,
2013-04-14 03:07:00,63.5,26.0,29.74,SE,135,15.0,15.0,24,0.00,OVC,,0.00,WeatherDisplay:10.37,2013-04-14 08:07:00,
2013-04-14 03:13:00,63.5,26.0,29.74,SE,135,9.2,9.2,24,0.00,OVC,,0.00,WeatherDisplay:10.37,2013-04-14 08:13:00,
2013-04-14 03:18:00,63.3,25.9,29.74,SSE,158,10.4,10.4,24,0.00,OVC,,0.00,WeatherDisplay:10.37,2013-04-14 08:18:00,
2013-04-14 03:23:00,63.1,25.7,29.74,SSE,158,3.5,3.5,24,0.00,-RA,,0.00,WeatherDisplay:10.37,2013-04-14 08:23:00,
2013-04-14 03:28:00,63.0,25.6,29.74,SSE,158,4.6,4.6,24,0.00,-RA,,0.00,WeatherDisplay:10.37,2013-04-14 08:28:00,
2013-04-14 03:33:00,62.8,26.4,29.71,SE,135,4.6,4.6,25,0.00,-RA,,0.00,WeatherDisplay:10.37,2013-04-14 08:33:00,
2013-04-14 03:38:00,62.4,27.0,29.71,SSW,202,2.3,2.6,26,0.00,-RA,,0.00,WeatherDisplay:10.37,2013-04-14 08:38:00,
2013-04-14 03:43:00,62.2,26.9,29.71,SSE,158,3.5,3.5,26,0.00,-RA,,0.00,WeatherDisplay:10.37,2013-04-14 08:43:00,
2013-04-14 03:48:00,62.2,26.9,29.74,SSE,158,2.3,2.9,26,0.00,-RA,,0.00,WeatherDisplay:10.37,2013-04-14 08:48:00,
2013-04-14 03:53:00,62.2,26.9,29.74,ESE,112,2.3,2.3,26,0.00,-RA,,0.00,WeatherDisplay:10.37,2013-04-14 08:53:00,
2013-04-14 03:58:00,62.2,26.9,29.74,SE,135,3.5,3.5,26,0.00,-RA,,0.00,WeatherDisplay:10.37,2013-04-14 08:58:00,
2013-04-14 04:03:00,62.2,27.8,29.71,SE,135,4.6,4.6,27,0.00,OVC,,0.00,WeatherDisplay:10.37,2013-04-14 09:03:00,
2013-04-14 04:08:00,62.2,27.8,29.71,SE,135,10.4,10.4,27,0.00,OVC,,0.00,WeatherDisplay:10.37,2013-04-14 09:08:00,
2013-04-14 04:13:00,62.2,27.8,29.71,SE,135,11.5,11.5,27,0.00,OVC,,0.00,WeatherDisplay:10.37,2013-04-14 09:13:00,
2013-04-14 04:18:00,62.2,27.8,29.74,SE,135,7.4,7.4,27,0.00,OVC,,0.00,WeatherDisplay:10.37,2013-04-14 09:18:00,
2013-04-14 04:23:00,62.1,27.7,29.74,SE,135,5.8,5.8,27,0.00,OVC,,0.00,WeatherDisplay:10.37,2013-04-14 09:23:00,
2013-04-14 04:28:00,62.1,27.7,29.74,SE,135,6.9,6.9,27,0.00,OVC,,0.00,WeatherDisplay:10.37,2013-04-14 09:28:00,
2013-04-14 04:33:00,62.1,27.7,29.74,SE,135,5.8,5.8,27,0.00,OVC,,0.00,WeatherDisplay:10.37,2013-04-14 09:33:00,
2013-04-14 04:38:00,61.9,27.5,29.74,SSE,158,0.0,0.0,27,0.00,OVC,,0.00,WeatherDisplay:10.37,2013-04-14 09:38:00,
2013-04-14 04:43:00,61.7,27.3,29.74,South,180,3.5,3.5,27,0.00,OVC,,0.00,WeatherDisplay:10.37,2013-04-14 09:43:00,
2013-04-14 04:48:00,61.3,27.0,29.77,South,180,0.0,0.0,27,0.00,OVC,,0.00,WeatherDisplay:10.37,2013-04-14 09:48:00,
2013-04-14 04:53:00,61.0,26.7,29.77,South,180,0.0,0.0,27,0.00,OVC,,0.00,WeatherDisplay:10.37,2013-04-14 09:53:00,
2013-04-14 04:58:00,60.8,27.5,29.77,South,180,0.0,0.0,28,0.00,OVC,,0.00,WeatherDisplay:10.37,2013-04-14 09:58:00,
2013-04-14 05:03:00,60.6,28.2,29.74,South,180,0.0,0.0,29,0.00,-RA,,0.00,WeatherDisplay:10.37,2013-04-14 10:03:00,
2013-04-14 05:08:00,60.6,29.0,29.74,South,180,0.0,0.0,30,0.00,-RA,,0.00,WeatherDisplay:10.37,2013-04-14 10:08:00,
2013-04-14 05:14:00,60.6,29.8,29.74,South,180,0.0,0.0,31,0.00,-RA,,0.00,WeatherDisplay:10.37,2013-04-14 10:14:00,
2013-04-14 05:19:00,60.6,30.6,29.77,NNW,338,0.0,0.0,32,0.00,-RA,,0.00,WeatherDisplay:10.37,2013-04-14 10:19:00,
2013-04-14 05:24:00,60.6,30.6,29.77,NNW,338,0.0,0.0,32,0.00,OVC,,0.00,WeatherDisplay:10.37,2013-04-14 10:24:00,
2013-04-14 05:29:00,60.4,30.4,29.77,SSE,158,0.0,0.0,32,0.00,OVC,,0.00,WeatherDisplay:10.37,2013-04-14 10:29:00,
2013-04-14 05:34:00,60.6,32.1,29.77,SE,135,0.0,2.4,34,0.00,OVC,,0.00,WeatherDisplay:10.37,2013-04-14 10:34:00,
2013-04-14 05:39:00,60.8,32.2,29.77,SSW,202,0.0,0.0,34,0.00,OVC,,0.00,WeatherDisplay:10.37,2013-04-14 10:39:00,
2013-04-14 05:44:00,61.0,32.4,29.77,East,90,2.3,2.6,34,0.00,OVC,,0.00,WeatherDisplay:10.37,2013-04-14 10:44:00,
2013-04-14 05:49:00,60.8,32.2,29.77,East,90,2.4,2.6,34,0.00,OVC,,0.00,WeatherDisplay:10.37,2013-04-14 10:49:00,
2013-04-14 05:54:00,60.8,33.0,29.77,SE,135,3.5,3.6,35,0.00,OVC,,0.00,WeatherDisplay:10.37,2013-04-14 10:54:00,
2013-04-14 05:59:00,60.8,33.0,29.77,SSE,158,1.2,2.0,35,0.00,OVC,,0.00,WeatherDisplay:10.37,2013-04-14 10:59:00,
2013-04-14 06:04:00,61.0,33.8,29.77,SSE,158,5.8,5.8,36,0.00,-RA,,0.00,WeatherDisplay:10.37,2013-04-14 11:04:00,
2013-04-14 06:09:00,61.0,33.8,29.77,SSE,158,0.0,0.0,36,0.00,-RA,,0.00,WeatherDisplay:10.37,2013-04-14 11:09:00,
2013-04-14 06:14:00,60.8,33.7,29.77,SSE,158,0.0,0.0,36,0.00,-RA,,0.00,WeatherDisplay:10.37,2013-04-14 11:14:00,
2013-04-14 06:19:00,61.0,33.8,29.80,SE,135,0.0,0.0,36,0.00,-RA,,0.00,WeatherDisplay:10.37,2013-04-14 11:19:00,
2013-04-14 06:24:00,61.0,33.8,29.80,SE,135,0.0,0.0,36,0.00,-RA,,0.00,WeatherDisplay:10.37,2013-04-14 11:24:00,
2013-04-14 06:29:00,61.0,33.8,29.80,SE,135,0.0,0.0,36,0.00,-RA,,0.00,WeatherDisplay:10.37,2013-04-14 11:29:00,
2013-04-14 06:34:00,61.0,33.8,29.80,SE,135,0.0,0.0,36,0.00,-RA,,0.00,WeatherDisplay:10.37,2013-04-14 11:34:00,
2013-04-14 06:39:00,61.0,33.8,29.80,SE,135,0.0,0.0,36,0.00,-RA,,0.00,WeatherDisplay:10.37,2013-04-14 11:39:00,
2013-04-14 06:44:00,61.0,33.8,29.80,SE,135,0.0,0.0,36,0.00,-RA,,0.00,WeatherDisplay:10.37,2013-04-14 11:44:00,
2013-04-14 06:49:00,61.0,33.8,29.80,SE,135,0.0,0.0,36,0.00,-RA,,0.00,WeatherDisplay:10.37,2013-04-14 11:49:00,
2013-04-14 06:54:00,61.0,33.8,29.80,East,90,0.0,0.0,36,0.00,-RA,,0.00,WeatherDisplay:10.37,2013-04-14 11:54:00,
2013-04-14 06:59:00,61.0,33.8,29.80,East,90,0.0,0.0,36,0.00,-RA,,0.00,WeatherDisplay:10.37,2013-04-14 11:59:00,
2013-04-14 07:04:00,61.0,33.8,29.80,East,90,0.0,0.0,36,0.00,BKN,,0.00,WeatherDisplay:10.37,2013-04-14 12:04:00,
2013-04-14 07:09:00,61.0,33.8,29.80,North,0,0.0,0.0,36,0.00,BKN,,0.00,WeatherDisplay:10.37,2013-04-14 12:09:00,
2013-04-14 07:14:00,61.0,33.8,29.80,North,0,0.0,0.0,36,0.00,BKN,,0.00,WeatherDisplay:10.37,2013-04-14 12:14:00,
2013-04-14 07:19:00,61.2,34.7,29.80,North,0,0.0,0.0,37,0.00,BKN,,0.00,WeatherDisplay:10.37,2013-04-14 12:19:00,
2013-04-14 07:24:00,61.2,34.7,29.80,North,0,0.0,0.0,37,0.00,OVC,,0.00,WeatherDisplay:10.37,2013-04-14 12:24:00,
2013-04-14 07:29:00,61.3,34.8,29.80,NNE,22,0.0,0.0,37,0.00,OVC,,0.00,WeatherDisplay:10.37,2013-04-14 12:29:00,
2013-04-14 07:34:00,61.3,34.8,29.80,NNE,22,0.0,0.0,37,0.00,OVC,,0.00,WeatherDisplay:10.37,2013-04-14 12:34:00,
2013-04-14 07:39:00,61.3,34.8,29.80,NNE,22,0.0,0.0,37,0.00,OVC,,0.00,WeatherDisplay:10.37,2013-04-14 12:39:00,
2013-04-14 07:44:00,61.3,35.5,29.80,NNE,22,0.0,0.0,38,0.00,OVC,,0.00,WeatherDisplay:10.37,2013-04-14 12:44:00,
2013-04-14 07:49:00,61.3,35.5,29.80,NNE,22,0.0,0.0,38,0.00,OVC,,0.00,WeatherDisplay:10.37,2013-04-14 12:49:00,
2013-04-14 07:54:00,61.3,35.5,29.80,North,0,2.9,0.0,38,0.00,OVC,,0.00,WeatherDisplay:10.37,2013-04-14 12:54:00,
2013-04-14 07:59:00,61.2,36.0,29.80,North,0,2.9,0.0,39,0.00,OVC,,0.00,WeatherDisplay:10.37,2013-04-14 12:59:00,
2013-04-14 08:04:00,61.2,36.0,29.83,North,0,0.0,1.6,39,0.00,OVC,,0.00,WeatherDisplay:10.37,2013-04-14 13:04:00,
2013-04-14 08:09:00,61.2,36.6,29.83,North,0,0.0,1.6,40,0.00,OVC,,0.00,WeatherDisplay:10.37,2013-04-14 13:09:00,
2013-04-14 08:14:00,61.2,36.6,29.83,North,0,0.0,1.6,40,0.00,OVC,,0.00,WeatherDisplay:10.37,2013-04-14 13:14:00,
2013-04-14 08:19:00,61.2,36.6,29.83,North,0,0.0,1.6,40,0.00,OVC,,0.00,WeatherDisplay:10.37,2013-04-14 13:19:00,
2013-04-14 08:24:00,61.3,37.4,29.83,North,0,0.0,1.6,41,0.00,OVC,,0.00,WeatherDisplay:10.37,2013-04-14 13:24:00,
2013-04-14 08:29:00,61.3,37.4,29.83,North,0,0.0,1.6,41,0.00,OVC,,0.00,WeatherDisplay:10.37,2013-04-14 13:29:00,
2013-04-14 08:34:00,61.7,37.7,29.83,North,0,0.0,1.6,41,0.00,OVC,,0.00,WeatherDisplay:10.37,2013-04-14 13:34:00,
2013-04-14 08:39:00,61.9,37.9,29.83,North,0,0.0,1.6,41,0.00,OVC,,0.00,WeatherDisplay:10.37,2013-04-14 13:39:00,
2013-04-14 08:44:00,62.2,38.2,29.83,North,0,0.0,1.6,41,0.00,OVC,,0.00,WeatherDisplay:10.37,2013-04-14 13:44:00,
2013-04-14 08:49:00,62.6,38.6,29.83,North,0,0.0,1.6,41,0.00,OVC,,0.00,WeatherDisplay:10.37,2013-04-14 13:49:00,
2013-04-14 08:54:00,63.0,38.2,29.83,North,0,0.0,1.6,40,0.00,OVC,,0.00,WeatherDisplay:10.37,2013-04-14 13:54:00,
2013-04-14 08:59:00,63.1,37.8,29.83,ENE,68,0.0,0.0,39,0.00,OVC,,0.00,WeatherDisplay:10.37,2013-04-14 13:59:00,
2013-04-14 09:04:00,63.5,37.4,29.83,ENE,68,0.0,0.0,38,0.00,OVC,,0.00,WeatherDisplay:10.37,2013-04-14 14:04:00,
2013-04-14 09:09:00,63.7,36.9,29.83,SSE,158,0.0,0.0,37,0.00,OVC,,0.00,WeatherDisplay:10.37,2013-04-14 14:09:00,
2013-04-14 09:14:00,64.0,37.9,29.83,NE,45,0.0,0.0,38,0.00,OVC,,0.00,WeatherDisplay:10.37,2013-04-14 14:14:00,
2013-04-14 09:19:00,64.2,38.1,29.83,ESE,112,0.0,0.0,38,0.00,OVC,,0.00,WeatherDisplay:10.37,2013-04-14 14:19:00,
2013-04-14 09:24:00,64.4,36.8,29.83,East,90,0.0,1.2,36,0.00,OVC,,0.00,WeatherDisplay:10.37,2013-04-14 14:24:00,
2013-04-14 09:30:00,64.2,36.7,29.83,East,90,4.6,4.6,36,0.00,OVC,,0.00,WeatherDisplay:10.37,2013-04-14 14:30:00,
2013-04-14 09:35:00,64.4,36.1,29.83,ESE,112,2.3,2.4,35,0.00,OVC,,0.00,WeatherDisplay:10.37,2013-04-14 14:35:00,
2013-04-14 09:40:00,64.8,36.5,29.83,ENE,68,0.0,0.0,35,0.00,OVC,,0.00,WeatherDisplay:10.37,2013-04-14 14:40:00,
2013-04-14 09:45:00,64.8,36.5,29.83,NNE,22,0.0,0.9,35,0.00,OVC,,0.00,WeatherDisplay:10.37,2013-04-14 14:45:00,
2013-04-14 09:50:00,65.3,36.2,29.83,ESE,112,0.0,0.0,34,0.00,OVC,,0.00,WeatherDisplay:10.37,2013-04-14 14:50:00,
2013-04-14 09:55:00,65.5,36.4,29.83,NE,45,3.5,3.5,34,0.00,OVC,,0.00,WeatherDisplay:10.37,2013-04-14 14:55:00,
2013-04-14 10:00:00,65.8,36.7,29.83,East,90,0.0,0.0,34,0.00,OVC,,0.00,WeatherDisplay:10.37,2013-04-14 15:00:00,
2013-04-14 10:05:00,66.0,36.1,29.85,ENE,68,0.0,0.0,33,0.00,OVC,,0.00,WeatherDisplay:10.37,2013-04-14 15:05:00,
2013-04-14 10:10:00,66.6,36.5,29.85,NE,45,2.3,2.3,33,0.00,OVC,,0.00,WeatherDisplay:10.37,2013-04-14 15:10:00,
2013-04-14 10:15:00,66.9,35.3,29.85,NE,45,3.5,3.5,31,0.00,OVC,,0.00,WeatherDisplay:10.37,2013-04-14 15:15:00,
2013-04-14 10:20:00,66.9,34.5,29.85,SE,135,3.5,3.5,30,0.00,OVC,,0.00,WeatherDisplay:10.37,2013-04-14 15:20:00,
2013-04-14 10:25:00,66.4,32.3,29.85,SSE,158,3.5,4.3,28,0.00,OVC,,0.00,WeatherDisplay:10.37,2013-04-14 15:25:00,
2013-04-14 10:30:00,66.7,32.6,29.85,ESE,112,2.3,2.4,28,0.00,OVC,,0.00,WeatherDisplay:10.37,2013-04-14 15:30:00,
2013-04-14 10:35:00,67.6,33.3,29.85,ESE,112,2.3,2.4,28,0.00,OVC,,0.00,WeatherDisplay:10.37,2013-04-14 15:35:00,
2013-04-14 10:40:00,68.0,32.7,29.85,ESE,112,2.3,2.4,27,0.00,OVC,,0.00,WeatherDisplay:10.37,2013-04-14 15:40:00,
2013-04-14 10:45:00,68.5,32.3,29.85,East,90,2.3,0.0,26,0.00,OVC,,0.00,WeatherDisplay:10.37,2013-04-14 15:45:00,
2013-04-14 10:50:00,69.1,31.8,29.85,ENE,68,3.5,3.5,25,0.00,OVC,,0.00,WeatherDisplay:10.37,2013-04-14 15:50:00,
2013-04-14 10:55:00,69.3,31.9,29.85,SE,135,4.6,4.6,25,0.00,OVC,,0.00,WeatherDisplay:10.37,2013-04-14 15:55:00,
2013-04-14 11:00:00,69.1,30.7,29.85,ESE,112,0.0,0.0,24,0.00,OVC,,0.00,WeatherDisplay:10.37,2013-04-14 16:00:00,
2013-04-14 11:05:00,69.1,30.7,29.85,ESE,112,0.0,3.3,24,0.00,OVC,,0.00,WeatherDisplay:10.37,2013-04-14 16:05:00,
2013-04-14 11:10:00,69.8,31.4,29.85,SE,135,0.0,0.0,24,0.00,OVC,,0.00,WeatherDisplay:10.37,2013-04-14 16:10:00,
2013-04-14 11:15:00,70.2,30.6,29.85,SE,135,0.0,0.0,23,0.00,OVC,,0.00,WeatherDisplay:10.37,2013-04-14 16:15:00,
2013-04-14 11:20:00,70.9,31.2,29.85,SE,135,0.0,2.6,23,0.00,OVC,,0.00,WeatherDisplay:10.37,2013-04-14 16:20:00,
2013-04-14 11:25:00,71.6,31.8,29.85,ESE,112,2.6,2.6,23,0.00,OVC,,0.00,WeatherDisplay:10.37,2013-04-14 16:25:00,
2013-04-14 11:30:00,71.6,30.7,29.85,ESE,112,0.0,2.6,22,0.00,OVC,,0.00,WeatherDisplay:10.37,2013-04-14 16:30:00,
2013-04-14 11:35:00,71.6,30.7,29.85,ESE,112,5.8,5.8,22,0.00,OVC,,0.00,WeatherDisplay:10.37,2013-04-14 16:35:00,
2013-04-14 11:40:00,72.7,31.6,29.85,SE,135,0.0,1.6,22,0.00,OVC,,0.00,WeatherDisplay:10.37,2013-04-14 16:40:00,
2013-04-14 11:45:00,72.7,31.6,29.85,SE,135,4.6,4.9,22,0.00,OVC,,0.00,WeatherDisplay:10.37,2013-04-14 16:45:00,
2013-04-14 11:50:00,73.4,31.1,29.85,SE,135,4.6,5.9,21,0.00,OVC,,0.00,WeatherDisplay:10.37,2013-04-14 16:50:00,
2013-04-14 11:55:00,72.7,30.5,29.85,ESE,112,4.6,4.6,21,0.00,OVC,,0.00,WeatherDisplay:10.37,2013-04-14 16:55:00,
2013-04-14 12:00:00,73.2,32.1,29.85,ESE,112,5.8,5.9,22,0.00,OVC,,0.00,WeatherDisplay:10.37,2013-04-14 17:00:00,
2013-04-14 12:05:00,74.8,32.3,29.85,ESE,112,6.9,6.9,21,0.00,OVC,,0.00,WeatherDisplay:10.37,2013-04-14 17:05:00,
2013-04-14 12:10:00,75.7,31.8,29.85,East,90,5.8,5.8,20,0.00,OVC,,0.00,WeatherDisplay:10.37,2013-04-14 17:10:00,
2013-04-14 12:15:00,77.0,32.8,29.83,SSE,158,5.8,5.8,20,0.00,OVC,,0.00,WeatherDisplay:10.37,2013-04-14 17:15:00,
2013-04-14 12:20:00,77.7,30.8,29.83,South,180,5.8,5.8,18,0.00,OVC,,0.00,WeatherDisplay:10.37,2013-04-14 17:20:00,
2013-04-14 12:25:00,78.1,31.1,29.83,SSE,158,6.9,6.9,18,0.00,OVC,,0.00,WeatherDisplay:10.37,2013-04-14 17:25:00,
2013-04-14 12:30:00,79.9,28.1,29.83,SSE,158,5.8,5.8,15,0.00,OVC,,0.00,WeatherDisplay:10.37,2013-04-14 17:30:00,
2013-04-14 12:35:00,79.0,27.4,29.83,ESE,112,6.9,6.9,15,0.00,OVC,,0.00,WeatherDisplay:10.37,2013-04-14 17:35:00,
2013-04-14 12:40:00,77.5,26.2,29.83,East,90,3.5,3.5,15,0.00,OVC,,0.00,WeatherDisplay:10.37,2013-04-14 17:40:00,
2013-04-14 12:45:00,76.8,25.6,29.83,NNW,338,3.5,3.6,15,0.00,OVC,,0.00,WeatherDisplay:10.37,2013-04-14 17:45:00,
2013-04-14 12:50:00,76.5,25.3,29.83,WSW,248,2.3,2.3,15,0.00,OVC,,0.00,WeatherDisplay:10.37,2013-04-14 17:50:00,
2013-04-14 12:55:00,77.4,26.1,29.83,WNW,292,0.0,0.0,15,0.00,OVC,,0.00,WeatherDisplay:10.37,2013-04-14 17:55:00,
2013-04-14 13:00:00,76.6,25.5,29.83,NW,315,3.5,3.5,15,0.00,BKN,,0.00,WeatherDisplay:10.37,2013-04-14 18:00:00,
2013-04-14 13:05:00,80.4,28.5,29.83,SW,225,2.6,2.6,15,0.00,BKN,,0.00,WeatherDisplay:10.37,2013-04-14 18:05:00,
2013-04-14 13:10:00,82.4,28.4,29.83,NW,315,0.0,0.0,14,0.00,BKN,,0.00,WeatherDisplay:10.37,2013-04-14 18:10:00,
2013-04-14 13:15:00,83.8,29.5,29.80,NW,315,0.0,0.0,14,0.00,BKN,,0.00,WeatherDisplay:10.37,2013-04-14 18:15:00,
2013-04-14 13:20:00,82.0,28.1,29.80,NW,315,0.0,0.0,14,0.00,BKN,,0.00,WeatherDisplay:10.37,2013-04-14 18:20:00,
2013-04-14 13:25:00,82.6,28.5,29.80,NW,315,0.0,0.0,14,0.00,BKN,,0.00,WeatherDisplay:10.37,2013-04-14 18:25:00,
2013-04-14 13:30:00,82.8,28.7,29.80,NW,315,0.0,0.0,14,0.00,BKN,,0.00,WeatherDisplay:10.37,2013-04-14 18:30:00,
2013-04-14 13:35:00,84.6,24.2,29.80,NW,315,0.0,0.0,11,0.00,BKN,,0.00,WeatherDisplay:10.37,2013-04-14 18:35:00,
2013-04-14 13:40:00,85.5,24.9,29.80,SE,135,2.6,4.3,11,0.00,BKN,,0.00,WeatherDisplay:10.37,2013-04-14 18:40:00,
2013-04-14 13:45:00,84.2,24.0,29.80,ESE,112,6.9,6.9,11,0.00,BKN,,0.00,WeatherDisplay:10.37,2013-04-14 18:45:00,
2013-04-14 13:50:00,84.7,28.4,29.80,SSW,202,1.2,2.0,13,0.00,BKN,,0.00,WeatherDisplay:10.37,2013-04-14 18:50:00,
2013-04-14 13:55:00,84.9,28.6,29.80,ESE,112,1.2,1.2,13,0.00,BKN,,0.00,WeatherDisplay:10.37,2013-04-14 18:55:00,
2013-04-14 14:01:00,85.3,24.8,29.80,ESE,112,6.9,6.9,11,0.00,BKN,,0.00,WeatherDisplay:10.37,2013-04-14 19:01:00,
2013-04-14 14:06:00,85.3,24.8,29.80,ESE,112,3.5,3.5,11,0.00,BKN,,0.00,WeatherDisplay:10.37,2013-04-14 19:06:00,
2013-04-14 14:11:00,86.0,25.4,29.80,NW,315,3.5,3.5,11,0.00,BKN,,0.00,WeatherDisplay:10.37,2013-04-14 19:11:00,
2013-04-14 14:16:00,87.1,26.2,29.77,NNW,338,3.5,3.5,11,0.00,BKN,,0.00,WeatherDisplay:10.37,2013-04-14 19:16:00,
2013-04-14 14:21:00,88.3,24.8,29.77,East,90,5.8,5.8,10,0.00,BKN,,0.00,WeatherDisplay:10.37,2013-04-14 19:21:00,
2013-04-14 14:26:00,87.1,26.2,29.77,East,90,5.8,5.8,11,0.00,BKN,,0.00,WeatherDisplay:10.37,2013-04-14 19:26:00,
2013-04-14 14:31:00,86.2,25.5,29.77,NNE,22,4.6,4.6,11,0.00,SCT,,0.00,WeatherDisplay:10.37,2013-04-14 19:31:00,
2013-04-14 14:36:00,85.8,25.2,29.77,SE,135,4.6,4.6,11,0.00,SCT,,0.00,WeatherDisplay:10.37,2013-04-14 19:36:00,
2013-04-14 14:41:00,86.0,25.4,29.77,East,90,2.3,2.3,11,0.00,SCT,,0.00,WeatherDisplay:10.37,2013-04-14 19:41:00,
2013-04-14 14:46:00,84.6,24.2,29.74,SSE,158,5.8,5.9,11,0.00,SCT,,0.00,WeatherDisplay:10.37,2013-04-14 19:46:00,
2013-04-14 14:51:00,84.7,24.4,29.74,SSE,158,5.8,5.9,11,0.00,SCT,,0.00,WeatherDisplay:10.37,2013-04-14 19:51:00,
2013-04-14 14:57:00,85.8,25.2,29.74,SSE,158,5.8,5.9,11,0.00,SCT,,0.00,WeatherDisplay:10.37,2013-04-14 19:57:00,
2013-04-14 15:02:00,84.7,24.4,29.74,SE,135,6.9,6.9,11,0.00,SCT,,0.00,WeatherDisplay:10.37,2013-04-14 20:02:00,
2013-04-14 15:07:00,84.9,24.5,29.74,SE,135,4.6,4.6,11,0.00,SCT,,0.00,WeatherDisplay:10.37,2013-04-14 20:07:00,
2013-04-14 15:12:00,85.3,24.8,29.74,SSE,158,3.5,4.5,11,0.00,SCT,,0.00,WeatherDisplay:10.37,2013-04-14 20:12:00,
2013-04-14 15:17:00,84.9,24.5,29.74,SE,135,2.3,2.3,11,0.00,SCT,,0.00,WeatherDisplay:10.37,2013-04-14 20:17:00,
2013-04-14 15:22:00,86.9,26.0,29.74,East,90,0.0,1.4,11,0.00,SCT,,0.00,WeatherDisplay:10.37,2013-04-14 20:22:00,
2013-04-14 15:27:00,86.0,25.4,29.74,ESE,112,3.5,3.5,11,0.00,SCT,,0.00,WeatherDisplay:10.37,2013-04-14 20:27:00,
2013-04-14 15:32:00,86.2,25.5,29.74,SE,135,2.3,3.3,11,0.00,SCT,,0.00,WeatherDisplay:10.37,2013-04-14 20:32:00,
2013-04-14 15:37:00,85.5,29.0,29.74,East,90,5.8,5.8,13,0.00,SCT,,0.00,WeatherDisplay:10.37,2013-04-14 20:37:00,
2013-04-14 15:43:00,84.9,24.5,29.74,South,180,4.6,4.6,11,0.00,SCT,,0.00,WeatherDisplay:10.37,2013-04-14 20:43:00,
2013-04-14 15:48:00,84.4,24.1,29.74,East,90,0.0,4.7,11,0.00,SCT,,0.00,WeatherDisplay:10.37,2013-04-14 20:48:00,
2013-04-14 15:53:00,83.8,23.7,29.74,East,90,0.0,4.7,11,0.00,SCT,,0.00,WeatherDisplay:10.37,2013-04-14 20:53:00,
2013-04-14 15:58:00,83.8,23.7,29.74,SE,135,0.0,4.7,11,0.00,SCT,,0.00,WeatherDisplay:10.37,2013-04-14 20:58:00,
2013-04-14 16:03:00,83.8,23.7,29.71,SE,135,4.6,4.6,11,0.00,FEW,,0.00,WeatherDisplay:10.37,2013-04-14 21:03:00,
2013-04-14 16:08:00,83.5,23.4,29.71,SE,135,2.3,2.3,11,0.00,FEW,,0.00,WeatherDisplay:10.37,2013-04-14 21:08:00,
2013-04-14 16:13:00,83.8,23.7,29.71,SE,135,2.3,2.3,11,0.00,FEW,,0.00,WeatherDisplay:10.37,2013-04-14 21:13:00,
2013-04-14 16:18:00,85.1,28.7,29.71,SE,135,2.3,2.3,13,0.00,FEW,,0.00,WeatherDisplay:10.37,2013-04-14 21:18:00,
2013-04-14 16:23:00,84.7,28.4,29.71,SE,135,2.3,2.3,13,0.00,FEW,,0.00,WeatherDisplay:10.37,2013-04-14 21:23:00,
2013-04-14 16:28:00,84.0,23.8,29.71,SE,135,2.3,2.3,11,0.00,FEW,,0.00,WeatherDisplay:10.37,2013-04-14 21:28:00,
2013-04-14 16:33:00,83.5,23.4,29.71,SE,135,8.5,8.5,11,0.00,FEW,,0.00,WeatherDisplay:10.37,2013-04-14 21:33:00,
2013-04-14 16:38:00,83.8,29.5,29.71,SE,135,8.1,8.1,14,0.00,FEW,,0.00,WeatherDisplay:10.37,2013-04-14 21:38:00,
2013-04-14 16:43:00,84.6,28.3,29.71,East,90,2.3,2.3,13,0.00,FEW,,0.00,WeatherDisplay:10.37,2013-04-14 21:43:00,
2013-04-14 16:48:00,84.0,29.7,29.71,East,90,0.0,1.2,14,0.00,FEW,,0.00,WeatherDisplay:10.37,2013-04-14 21:48:00,
2013-04-14 16:53:00,83.8,29.5,29.71,East,90,0.0,1.2,14,0.00,FEW,,0.00,WeatherDisplay:10.37,2013-04-14 21:53:00,
2013-04-14 16:58:00,83.8,29.5,29.71,East,90,0.0,1.2,14,0.00,FEW,,0.00,WeatherDisplay:10.37,2013-04-14 21:58:00,
2013-04-14 17:03:00,83.8,29.5,29.71,East,90,0.0,1.2,14,0.00,CLR,,0.00,WeatherDisplay:10.37,2013-04-14 22:03:00,
2013-04-14 17:08:00,83.1,29.0,29.71,East,90,0.0,1.2,14,0.00,CLR,,0.00,WeatherDisplay:10.37,2013-04-14 22:08:00,
2013-04-14 17:13:00,81.0,23.5,29.71,East,90,0.0,1.2,12,0.00,CLR,,0.00,WeatherDisplay:10.37,2013-04-14 22:13:00,
2013-04-14 17:18:00,79.3,22.3,29.71,East,90,0.0,1.2,12,0.00,CLR,,0.00,WeatherDisplay:10.37,2013-04-14 22:18:00,
2013-04-14 17:23:00,78.4,23.5,29.71,East,90,0.0,1.2,13,0.00,CLR,,0.00,WeatherDisplay:10.37,2013-04-14 22:23:00,
2013-04-14 17:28:00,77.4,22.6,29.71,East,90,0.0,1.2,13,0.00,CLR,,0.00,WeatherDisplay:10.37,2013-04-14 22:28:00,
2013-04-14 17:33:00,79.3,22.3,29.71,East,90,0.0,1.2,12,0.00,CLR,,0.00,WeatherDisplay:10.37,2013-04-14 22:33:00,
2013-04-14 17:38:00,81.1,23.7,29.71,East,90,0.0,1.2,12,0.00,CLR,,0.00,WeatherDisplay:10.37,2013-04-14 22:38:00,
2013-04-14 17:43:00,82.0,24.4,29.71,East,90,0.0,1.2,12,0.00,CLR,,0.00,WeatherDisplay:10.37,2013-04-14 22:43:00,
2013-04-14 17:48:00,81.5,24.0,29.71,East,90,0.0,1.2,12,0.00,CLR,,0.00,WeatherDisplay:10.37,2013-04-14 22:48:00,
2013-04-14 17:53:00,81.1,23.7,29.71,East,90,0.0,1.2,12,0.00,CLR,,0.00,WeatherDisplay:10.37,2013-04-14 22:53:00,
2013-04-14 17:58:00,80.8,23.4,29.71,East,90,0.0,1.2,12,0.00,CLR,,0.00,WeatherDisplay:10.37,2013-04-14 22:58:00,
2013-04-14 18:03:00,81.0,23.5,29.71,East,90,0.0,1.2,12,0.00,CLR,,0.00,WeatherDisplay:10.37,2013-04-14 23:03:00,
2013-04-14 18:08:00,81.3,27.5,29.71,East,90,0.0,1.2,14,0.00,CLR,,0.00,WeatherDisplay:10.37,2013-04-14 23:08:00,
2013-04-14 18:13:00,81.1,27.4,29.71,East,90,0.0,1.2,14,0.00,CLR,,0.00,WeatherDisplay:10.37,2013-04-14 23:13:00,
2013-04-14 18:18:00,81.1,27.4,29.71,SSW,202,0.0,0.9,14,0.00,CLR,,0.00,WeatherDisplay:10.37,2013-04-14 23:18:00,
2013-04-14 18:23:00,80.8,27.1,29.71,SSW,202,0.0,0.9,14,0.00,CLR,,0.00,WeatherDisplay:10.37,2013-04-14 23:23:00,
2013-04-14 18:28:00,80.8,27.1,29.71,SSW,202,0.0,0.9,14,0.00,CLR,,0.00,WeatherDisplay:10.37,2013-04-14 23:28:00,
2013-04-14 18:33:00,80.1,22.8,29.71,SSW,202,0.0,0.9,12,0.00,CLR,,0.00,WeatherDisplay:10.37,2013-04-14 23:33:00,
2013-04-14 18:38:00,79.9,22.7,29.71,SSW,202,0.0,0.9,12,0.00,CLR,,0.00,WeatherDisplay:10.37,2013-04-14 23:38:00,
2013-04-14 18:43:00,79.9,22.7,29.71,SSW,202,0.0,0.9,12,0.00,CLR,,0.00,WeatherDisplay:10.37,2013-04-14 23:43:00,
2013-04-14 18:48:00,79.5,22.4,29.71,SSW,202,0.0,0.9,12,0.00,CLR,,0.00,WeatherDisplay:10.37,2013-04-14 23:48:00,
2013-04-14 18:53:00,79.2,22.1,29.71,SSW,202,0.0,0.9,12,0.00,CLR,,0.00,WeatherDisplay:10.37,2013-04-14 23:53:00,
2013-04-14 18:58:00,78.8,21.9,29.71,SSW,202,0.0,0.9,12,0.00,CLR,,0.00,WeatherDisplay:10.37,2013-04-14 23:58:00,
2013-04-14 19:03:00,78.1,23.2,29.71,SSW,202,0.0,0.9,13,0.00,CLR,,0.00,WeatherDisplay:10.37,2013-04-15 00:03:00,
2013-04-14 19:08:00,77.4,22.6,29.71,WSW,248,2.3,2.3,13,0.00,CLR,,0.00,WeatherDisplay:10.37,2013-04-15 00:08:00,
2013-04-14 19:13:00,77.0,22.4,29.71,WSW,248,2.3,2.3,13,0.00,CLR,,0.00,WeatherDisplay:10.37,2013-04-15 00:13:00,
2013-04-14 19:18:00,76.1,21.6,29.71,SSE,158,1.2,0.0,13,0.00,CLR,,0.00,WeatherDisplay:10.37,2013-04-15 00:18:00,
2013-04-14 19:23:00,75.4,21.1,29.71,SE,135,2.3,2.3,13,0.00,CLR,,0.00,WeatherDisplay:10.37,2013-04-15 00:23:00,
2013-04-14 19:29:00,74.3,20.2,29.71,SE,135,2.3,2.3,13,0.00,CLR,,0.00,WeatherDisplay:10.37,2013-04-15 00:29:00,
2013-04-14 19:34:00,73.4,19.5,29.71,SE,135,2.3,2.3,13,0.00,CLR,,0.00,WeatherDisplay:10.37,2013-04-15 00:34:00,
2013-04-14 19:39:00,72.5,20.5,29.71,SE,135,2.3,2.3,14,0.00,CLR,,0.00,WeatherDisplay:10.37,2013-04-15 00:39:00,
2013-04-14 19:44:00,71.4,19.7,29.71,SE,135,2.3,2.3,14,0.00,CLR,,0.00,WeatherDisplay:10.37,2013-04-15 00:44:00,
2013-04-14 19:49:00,70.7,19.1,29.71,SE,135,0.0,0.0,14,0.00,CLR,,0.00,WeatherDisplay:10.37,2013-04-15 00:49:00,
2013-04-14 19:54:00,70.3,23.4,29.71,SE,135,0.0,1.2,17,0.00,CLR,,0.00,WeatherDisplay:10.37,2013-04-15 00:54:00,
2013-04-14 19:59:00,70.2,23.3,29.71,SE,135,0.0,1.2,17,0.00,CLR,,0.00,WeatherDisplay:10.37,2013-04-15 00:59:00,
2013-04-14 20:04:00,70.2,25.9,29.71,SE,135,0.0,1.2,19,0.00,CLR,,0.00,WeatherDisplay:10.37,2013-04-15 01:04:00,
2013-04-14 20:09:00,69.8,25.6,29.71,SSW,202,0.0,0.0,19,0.00,CLR,,0.00,WeatherDisplay:10.37,2013-04-15 01:09:00,
2013-04-14 20:14:00,69.6,29.1,29.71,SSW,202,3.5,3.5,22,0.00,CLR,,0.00,WeatherDisplay:10.37,2013-04-15 01:14:00,
2013-04-14 20:19:00,69.4,30.0,29.71,WSW,248,4.6,4.6,23,0.00,CLR,,0.00,WeatherDisplay:10.37,2013-04-15 01:19:00,
2013-04-14 20:24:00,69.3,30.9,29.71,NW,315,0.0,0.9,24,0.00,CLR,,0.00,WeatherDisplay:10.37,2013-04-15 01:24:00,
2013-04-14 20:29:00,69.3,30.9,29.71,SSE,158,1.2,0.0,24,0.00,CLR,,0.00,WeatherDisplay:10.37,2013-04-15 01:29:00,
2013-04-14 20:34:00,69.1,31.8,29.71,West,270,2.3,2.3,25,0.00,CLR,,0.00,WeatherDisplay:10.37,2013-04-15 01:34:00,
2013-04-14 20:39:00,68.7,32.4,29.71,WSW,248,0.0,0.0,26,0.00,CLR,,0.00,WeatherDisplay:10.37,2013-04-15 01:39:00,
2013-04-14 20:44:00,68.5,32.3,29.71,NW,315,0.0,0.0,26,0.00,CLR,,0.00,WeatherDisplay:10.37,2013-04-15 01:44:00,
2013-04-14 20:49:00,68.5,33.2,29.74,WSW,248,0.0,1.2,27,0.00,CLR,,0.00,WeatherDisplay:10.37,2013-04-15 01:49:00,
2013-04-14 20:54:00,68.2,32.9,29.74,SSW,202,0.0,1.4,27,0.00,CLR,,0.00,WeatherDisplay:10.37,2013-04-15 01:54:00,
2013-04-14 20:59:00,68.2,33.8,29.74,SW,225,1.2,0.0,28,0.00,CLR,,0.00,WeatherDisplay:10.37,2013-04-15 01:59:00,
2013-04-14 21:04:00,67.8,33.5,29.74,WSW,248,0.0,0.0,28,0.00,CLR,,0.00,WeatherDisplay:10.37,2013-04-15 02:04:00,
2013-04-14 21:09:00,67.8,33.5,29.74,SSE,158,0.0,0.0,28,0.00,CLR,,0.00,WeatherDisplay:10.37,2013-04-15 02:09:00,
2013-04-14 21:14:00,67.8,33.5,29.74,East,90,0.0,0.0,28,0.00,CLR,,0.00,WeatherDisplay:10.37,2013-04-15 02:14:00,
2013-04-14 21:19:00,67.8,34.4,29.74,SSE,158,0.0,0.0,29,0.00,CLR,,0.00,WeatherDisplay:10.37,2013-04-15 02:19:00,
2013-04-14 21:25:00,67.8,36.1,29.74,SSW,202,2.3,2.3,31,0.00,CLR,,0.00,WeatherDisplay:10.37,2013-04-15 02:25:00,
2013-04-14 21:30:00,68.2,37.2,29.74,ESE,112,2.3,2.3,32,0.00,CLR,,0.00,WeatherDisplay:10.37,2013-04-15 02:30:00,
2013-04-14 21:35:00,68.0,37.0,29.74,SE,135,0.0,0.0,32,0.00,CLR,,0.00,WeatherDisplay:10.37,2013-04-15 02:35:00,
2013-04-14 21:40:00,67.6,35.9,29.74,SSW,202,2.3,0.0,31,0.00,CLR,,0.00,WeatherDisplay:10.37,2013-04-15 02:40:00,
2013-04-14 21:45:00,67.3,35.6,29.74,SW,225,0.0,0.0,31,0.00,CLR,,0.00,WeatherDisplay:10.37,2013-04-15 02:45:00,
2013-04-14 21:50:00,66.9,35.3,29.77,SSW,202,0.0,0.0,31,0.00,CLR,,0.00,WeatherDisplay:10.37,2013-04-15 02:50:00,
2013-04-14 21:55:00,66.7,35.1,29.77,SSW,202,0.0,0.0,31,0.00,CLR,,0.00,WeatherDisplay:10.37,2013-04-15 02:55:00,
2013-04-14 22:00:00,66.7,35.9,29.77,SSW,202,0.0,0.0,32,0.00,CLR,,0.00,WeatherDisplay:10.37,2013-04-15 03:00:00,
2013-04-14 22:05:00,66.4,34.8,29.77,South,180,0.0,0.0,31,0.00,CLR,,0.00,WeatherDisplay:10.37,2013-04-15 03:05:00,
2013-04-14 22:10:00,66.6,36.5,29.77,SW,225,0.0,0.0,33,0.00,CLR,,0.00,WeatherDisplay:10.37,2013-04-15 03:10:00,
2013-04-14 22:15:00,66.6,36.5,29.77,SE,135,0.0,0.0,33,0.00,CLR,,0.00,WeatherDisplay:10.37,2013-04-15 03:15:00,
2013-04-14 22:20:00,66.2,36.2,29.77,ESE,112,0.0,0.0,33,0.00,CLR,,0.00,WeatherDisplay:10.37,2013-04-15 03:20:00,
2013-04-14 22:25:00,65.8,35.9,29.77,ESE,112,0.0,0.0,33,0.00,CLR,,0.00,WeatherDisplay:10.37,2013-04-15 03:25:00,
2013-04-14 22:30:00,65.7,35.8,29.77,SE,135,0.0,0.0,33,0.00,CLR,,0.00,WeatherDisplay:10.37,2013-04-15 03:30:00,
2013-04-14 22:35:00,65.7,35.8,29.77,South,180,0.0,0.0,33,0.00,CLR,,0.00,WeatherDisplay:10.37,2013-04-15 03:35:00,
2013-04-14 22:40:00,65.3,35.4,29.77,SE,135,0.0,0.0,33,0.00,CLR,,0.00,WeatherDisplay:10.37,2013-04-15 03:40:00,
2013-04-14 22:45:00,65.3,35.4,29.77,South,180,0.0,0.0,33,0.00,CLR,,0.00,WeatherDisplay:10.37,2013-04-15 03:45:00,
2013-04-14 22:50:00,65.1,35.3,29.77,South,180,0.0,0.0,33,0.00,CLR,,0.00,WeatherDisplay:10.37,2013-04-15 03:50:00,
2013-04-14 22:55:00,64.9,35.9,29.77,South,180,0.0,0.0,34,0.00,CLR,,0.00,WeatherDisplay:10.37,2013-04-15 03:55:00,
2013-04-14 23:00:00,64.9,35.9,29.77,South,180,0.0,0.0,34,0.00,CLR,,0.00,WeatherDisplay:10.37,2013-04-15 04:00:00,
2013-04-14 23:05:00,64.8,35.7,29.77,SSW,202,0.0,0.0,34,0.00,CLR,,0.00,WeatherDisplay:10.37,2013-04-15 04:05:00,
2013-04-14 23:10:00,64.8,35.7,29.77,SSW,202,0.0,0.0,34,0.00,CLR,,0.00,WeatherDisplay:10.37,2013-04-15 04:10:00,
2013-04-14 23:15:00,64.8,35.7,29.77,SSW,202,0.0,0.0,34,0.00,CLR,,0.00,WeatherDisplay:10.37,2013-04-15 04:15:00,
2013-04-14 23:20:00,64.8,35.7,29.77,SSW,202,0.0,0.0,34,0.00,CLR,,0.00,WeatherDisplay:10.37,2013-04-15 04:20:00,
2013-04-14 23:25:00,64.9,35.9,29.77,SSE,158,1.2,1.2,34,0.00,CLR,,0.00,WeatherDisplay:10.37,2013-04-15 04:25:00,
2013-04-14 23:30:00,65.1,36.8,29.80,ESE,112,0.0,0.0,35,0.00,CLR,,0.00,WeatherDisplay:10.37,2013-04-15 04:30:00,
2013-04-14 23:35:00,64.8,35.7,29.80,East,90,0.0,0.0,34,0.00,CLR,,0.00,WeatherDisplay:10.37,2013-04-15 04:35:00,
2013-04-14 23:40:00,64.8,36.5,29.80,East,90,0.0,0.0,35,0.00,CLR,,0.00,WeatherDisplay:10.37,2013-04-15 04:40:00,
2013-04-14 23:45:00,64.9,36.6,29.80,East,90,0.0,0.0,35,0.00,CLR,,0.00,WeatherDisplay:10.37,2013-04-15 04:45:00,
2013-04-14 23:50:00,64.9,36.6,29.80,SSW,202,0.0,0.0,35,0.00,CLR,,0.00,WeatherDisplay:10.37,2013-04-15 04:50:00,
2013-04-14 23:55:00,65.1,36.8,29.80,SSW,202,0.0,0.0,35,0.00,CLR,,0.00,WeatherDisplay:10.37,2013-04-15 04:55:00,